[[{"header":{"parameterUnit":"m.s-1","parameterCategory":1,"la1":30.2991,"la2":30.254,"lo1":-89.0895,"lo2":-89.0444,"dy":0.0017,"dx":0.0017,"nx":28,"ny":28,"refTime":"2024-08-03T03:00:00:Z","depth":0,"parameterNumber":2,"parameterNumberName":"U-component_of_WINDS"},"data":[0,0,0,0,0,0,0,0,0,0,0,0,0,0,0,0,0,0,0,0,0,0,0,0,0,0,0,0,0,0,0,0,0,0,0,0,0,0,0,0,0,0,0,0,0,0,0,0,0,0,0,0,0,0,0,0,0,0,-0.2385,-0.2384,0,-0.2256,-0.2254,-0.2253,-0.2227,-0.2228,-0.2229,-0.223,-0.2092,-0.2088,-0.2083,0,0,0,0,0,0,0,0,0,0,0,0,0,-0.2608,-0.2604,-0.2385,-0.2384,-0.2382,-0.2256,-0.2254,-0.2252,-0.2227,-0.2228,-0.2229,-0.223,-0.2094,-0.2089,-0.2083,0,0,0,0,0,0,0,0,0,0,0,0,0,-0.2498,-0.2603,-0.2386,-0.2354,-0.235,-0.2256,-0.2254,-0.2252,-0.2226,-0.2228,-0.2229,-0.2231,-0.2096,-0.2089,-0.2082,-0.2009,0,0,-0.2061,-0.2058,0,0,0,0,0,0,0,0,-0.2504,-0.249,-0.236,-0.2356,-0.2351,-0.2259,-0.2282,-0.217,-0.2226,-0.2273,-0.223,-0.2232,-0.2146,-0.2135,-0.2107,-0.2002,-0.1997,-0.206,-0.2056,-0.2053,-0.2051,0,0,0,0,0,0,0,-0.2512,-0.2495,-0.2334,-0.2359,-0.2353,-0.2346,-0.2332,-0.2261,-0.2203,-0.2269,-0.2267,-0.2252,-0.2144,-0.2114,-0.2104,-0.1994,-0.2061,-0.2055,-0.205,-0.2048,-0.1824,-0.1822,0,0,0,0,0,0,-0.2526,-0.2502,-0.2338,-0.233,-0.2433,-0.234,-0.2325,-0.2287,-0.2203,-0.2192,-0.2251,-0.2252,-0.2125,-0.2112,-0.2099,-0.2008,-0.2053,-0.2047,-0.2043,-0.1826,-0.1824,-0.1822,0,0,0,0,0,0,-0.253,-0.2511,-0.2343,-0.2415,-0.2393,-0.2335,-0.2293,-0.2284,-0.2254,-0.219,-0.2179,-0.2231,-0.2126,-0.2109,-0.2032,-0.2003,-0.2044,-0.2037,-0.1828,-0.1825,-0.1823,-0.1826,0,0,0,0,0,0,-0.2537,-0.2513,-0.2485,-0.2415,-0.239,-0.2279,-0.2291,-0.228,-0.2242,-0.2242,-0.2168,-0.2158,-0.2126,-0.2043,-0.2025,-0.1994,-0.2032,-0.183,-0.1827,-0.1823,-0.1828,-0.1823,-0.182,0,0,0,0,0,-0.2545,-0.249,-0.2484,-0.2464,-0.2354,-0.2277,-0.2263,-0.2229,-0.224,-0.2211,-0.2171,-0.216,-0.201,-0.2035,-0.2015,-0.1982,-0.1832,-0.1828,-0.1824,-0.183,-0.1824,-0.182,0,0,0,0,0,0,-0.2555,-0.248,-0.2472,-0.2393,-0.2342,-0.2273,-0.2235,-0.2224,-0.2167,-0.2169,-0.2128,-0.2111,-0.2037,-0.2002,-0.2031,-0.1907,-0.1921,-0.1913,-0.1932,-0.1927,-0.1923,-0.1932,-0.2026,0,0,0,0,0,-0.2549,-0.2495,-0.2431,-0.2367,-0.2342,-0.2294,-0.2259,-0.2238,-0.2183,-0.216,-0.2114,-0.206,-0.2,-0.1962,-0.1903,-0.1823,-0.1807,-0.1791,-0.1787,-0.1783,-0.1776,-0.1732,-0.1724,-0.1808,-0.1808,-0.1808,0,0,-0.2534,-0.2486,-0.2454,-0.2368,-0.2326,-0.227,-0.2275,-0.2215,-0.2173,-0.2151,-0.2076,-0.204,-0.1977,-0.1899,-0.1861,-0.1867,-0.175,-0.1778,-0.1776,-0.1771,-0.1727,-0.1719,-0.1712,-0.1806,-0.1806,-0.1807,0,0,-0.2478,-0.2437,-0.238,-0.2338,-0.2276,-0.2244,-0.2231,-0.2164,-0.214,-0.2065,-0.2047,-0.1996,-0.1895,-0.1851,-0.1815,-0.1746,-0.1734,-0.1728,-0.1706,-0.1663,-0.1657,-0.165,-0.1626,-0.1617,-0.1722,-0.1722,-0.1722,0,-0.2467,-0.2383,-0.2351,-0.2293,-0.2256,-0.2236,-0.2177,-0.2138,-0.2059,-0.2033,-0.2041,-0.1915,-0.187,-0.1782,-0.1765,-0.1737,-0.172,-0.1735,-0.1661,-0.1654,-0.1648,-0.1624,-0.1614,-0.1721,-0.1721,-0.1721,-0.1722,0,-0.2373,-0.2315,-0.2276,-0.2203,-0.2162,-0.2103,-0.2062,-0.2024,-0.2007,-0.1974,-0.1898,-0.1845,-0.1777,-0.1754,-0.1736,-0.1663,-0.1669,-0.1669,-0.1682,-0.164,-0.1617,-0.1607,-0.1721,-0.1721,-0.1721,-0.1721,0,0,-0.2317,-0.2229,-0.2215,-0.2183,-0.2114,-0.2068,-0.2009,-0.1944,-0.1912,-0.1859,-0.1808,-0.1724,-0.1725,-0.1685,-0.1661,-0.1624,-0.1573,-0.1629,-0.1627,-0.162,-0.149,-0.1489,-0.1479,-0.1566,-0.1564,-0.1562,-0.1495,0,-0.2252,-0.2148,-0.2119,-0.2031,-0.1977,-0.1959,-0.1908,-0.186,-0.1828,-0.1778,-0.1742,-0.1684,-0.1689,-0.1665,-0.1627,-0.1587,-0.1546,-0.1592,-0.1517,-0.1515,-0.1532,-0.1467,-0.1466,-0.1404,-0.1486,-0.1484,-0.1483,0,-0.2162,-0.211,-0.2017,-0.1957,-0.1934,-0.1888,-0.1827,-0.1779,-0.1725,-0.1704,-0.1661,-0.1642,-0.158,-0.1598,-0.1511,-0.1543,-0.1511,-0.1487,-0.1484,-0.1474,-0.1495,-0.1455,-0.1384,-0.1375,-0.1468,-0.1469,-0.147,0,-0.213,-0.2037,-0.197,-0.1942,-0.1871,-0.1839,-0.1808,-0.1755,-0.1718,-0.1664,-0.164,-0.1579,-0.1546,-0.1499,-0.1464,-0.148,-0.138,-0.1395,-0.136,-0.1361,-0.1338,-0.134,-0.126,-0.132,-0.132,-0.132,-0.132,0,-0.206,-0.2004,-0.1955,-0.1913,-0.185,-0.1818,-0.1755,-0.1723,-0.1676,-0.1627,-0.1608,-0.1562,-0.1519,-0.1468,-0.144,-0.1372,-0.1357,-0.1338,-0.1331,-0.1339,-0.1342,-0.1316,-0.1319,-0.1317,-0.1318,-0.1318,-0.1319,0,-0.2013,-0.1978,-0.1904,-0.1843,-0.1827,-0.1783,-0.173,-0.1689,-0.1659,-0.1597,-0.1581,-0.1532,-0.1471,-0.1432,-0.1353,-0.1334,-0.126,-0.1255,-0.1279,-0.1275,-0.1243,-0.1246,-0.1143,-0.1128,-0.1199,-0.1198,-0.1198,0,-0.197,-0.1927,-0.1863,-0.183,-0.1799,-0.1746,-0.171,-0.1676,-0.1639,-0.1575,-0.1541,-0.1479,-0.1428,-0.133,-0.1287,-0.1227,-0.1219,-0.1188,-0.121,-0.122,-0.1218,-0.1221,-0.1216,-0.1183,-0.1183,-0.1182,-0.1182,0,-0.1897,-0.1883,-0.1832,-0.1776,-0.1734,-0.1687,-0.164,-0.1614,-0.1573,-0.1532,-0.147,-0.1431,-0.1352,-0.129,-0.1227,-0.1193,-0.118,-0.1176,-0.1164,-0.1171,-0.1187,-0.1178,-0.1268,-0.1178,-0.1178,-0.1178,-0.1178,-0.1179,-0.185,-0.1812,-0.1762,-0.1706,-0.1668,-0.1626,-0.1585,-0.1551,-0.1499,-0.1434,-0.1417,-0.1353,-0.13,-0.1214,-0.118,-0.1128,-0.1132,-0.1115,-0.1111,-0.1107,-0.1107,-0.1197,-0.1116,-0.1116,-0.1116,-0.1116,-0.1116,0,-0.1776,-0.1744,-0.1693,-0.163,-0.1587,-0.1582,-0.1531,-0.1494,-0.1438,-0.1392,-0.1343,-0.1272,-0.1213,-0.1167,-0.1106,-0.1073,-0.1066,-0.1058,-0.1059,-0.1052,-0.1107,-0.1122,-0.1065,-0.1065,-0.1065,-0.1065,-0.1065,-0.1065,-0.1732,-0.1667,-0.1647,-0.1563,-0.1531,-0.1469,-0.1441,-0.1401,-0.1364,-0.1287,-0.1239,-0.1211,-0.1164,-0.11,-0.1045,-0.1033,-0.1011,-0.1004,-0.0991,-0.1042,-0.1048,-0.1053,-0.1068,-0.1,-0.1,-0.094,-0.0939,-0.0939]},{"header":{"parameterUnit":"m.s-1","parameterCategory":1,"la1":30.2991,"la2":30.254,"lo1":-89.0895,"lo2":-89.0444,"dy":0.0017,"dx":0.0017,"nx":28,"ny":28,"refTime":"2024-08-03T03:00:00:Z","depth":0,"parameterNumber":3,"parameterNumberName":"V-component_of_WINDS"},"data":[0,0,0,0,0,0,0,0,0,0,0,0,0,0,0,0,0,0,0,0,0,0,0,0,0,0,0,0,0,0,0,0,0,0,0,0,0,0,0,0,0,0,0,0,0,0,0,0,0,0,0,0,0,0,0,0,0,0,1.628,1.628,0,1.6261,1.6261,1.626,1.623,1.623,1.6229,1.6229,1.6209,1.6208,1.6208,0,0,0,0,0,0,0,0,0,0,0,0,0,1.6291,1.6291,1.628,1.628,1.628,1.6261,1.6261,1.626,1.623,1.623,1.6229,1.6229,1.6209,1.6208,1.6208,0,0,0,0,0,0,0,0,0,0,0,0,0,1.628,1.6291,1.628,1.6263,1.6261,1.6261,1.6261,1.626,1.6231,1.623,1.6229,1.6228,1.6209,1.6208,1.6208,1.6224,0,0,1.6208,1.6208,0,0,0,0,0,0,0,0,1.6281,1.628,1.6265,1.6264,1.6262,1.6247,1.6257,1.6248,1.6231,1.6242,1.6229,1.6228,1.6222,1.6221,1.6219,1.6223,1.6222,1.6208,1.6208,1.6208,1.6208,0,0,0,0,0,0,0,1.6282,1.628,1.6273,1.6265,1.6263,1.6255,1.6253,1.6255,1.6237,1.6241,1.6239,1.6237,1.6221,1.6219,1.6218,1.6222,1.6208,1.6208,1.6208,1.6208,1.6237,1.6237,0,0,0,0,0,0,1.6285,1.6281,1.6273,1.6272,1.627,1.6256,1.6253,1.6253,1.6237,1.6233,1.6238,1.6236,1.622,1.6218,1.6217,1.6233,1.6208,1.6208,1.6208,1.6236,1.6237,1.6238,0,0,0,0,0,0,1.6285,1.6285,1.6274,1.6276,1.6274,1.6256,1.6256,1.6253,1.6251,1.6234,1.6231,1.6239,1.6219,1.6217,1.6222,1.6232,1.6208,1.6208,1.6235,1.6236,1.6237,1.6266,0,0,0,0,0,0,1.6286,1.6285,1.6291,1.6276,1.6274,1.628,1.6257,1.6253,1.6251,1.6248,1.6235,1.6232,1.6218,1.6223,1.6222,1.6232,1.6208,1.6234,1.6235,1.6237,1.6264,1.6268,1.6272,0,0,0,0,0,1.6286,1.63,1.6291,1.6291,1.6281,1.628,1.6279,1.6263,1.6252,1.6257,1.6246,1.6232,1.6232,1.6223,1.6223,1.6232,1.6233,1.6235,1.6237,1.6263,1.6268,1.6272,0,0,0,0,0,0,1.6316,1.6298,1.6288,1.6298,1.6291,1.6275,1.6282,1.6269,1.6265,1.6263,1.6243,1.624,1.6247,1.6241,1.6232,1.6246,1.623,1.6232,1.625,1.6255,1.6258,1.6259,1.6208,0,0,0,0,0,1.6324,1.6325,1.6309,1.6319,1.6316,1.63,1.6299,1.6287,1.6279,1.6276,1.6265,1.6258,1.6256,1.6255,1.6252,1.6264,1.6259,1.627,1.6274,1.6277,1.6278,1.6282,1.6286,1.6243,1.6243,1.6243,0,0,1.634,1.633,1.6332,1.6325,1.6318,1.6319,1.6297,1.63,1.63,1.6276,1.628,1.6272,1.6262,1.627,1.6273,1.6264,1.6289,1.6279,1.6282,1.6281,1.6284,1.6288,1.6292,1.6245,1.6244,1.6244,0,0,1.6369,1.6363,1.6369,1.6363,1.6353,1.6342,1.6344,1.633,1.6324,1.6327,1.6309,1.6309,1.6307,1.63,1.6296,1.6323,1.6309,1.6322,1.6341,1.6345,1.6349,1.6351,1.6359,1.6363,1.6324,1.6324,1.6324,0,1.639,1.6391,1.6375,1.6377,1.6374,1.6353,1.636,1.6354,1.6344,1.6342,1.6333,1.6328,1.6321,1.6326,1.6332,1.633,1.6331,1.6323,1.635,1.6352,1.6355,1.6362,1.6365,1.6326,1.6326,1.6325,1.6325,0,1.6417,1.6418,1.6424,1.6415,1.6412,1.6417,1.6401,1.6401,1.6389,1.6379,1.6382,1.6372,1.6366,1.6367,1.6356,1.637,1.6365,1.6353,1.6336,1.6361,1.6367,1.637,1.6328,1.6327,1.6327,1.6327,0,0,1.6464,1.6445,1.6447,1.6442,1.643,1.643,1.6433,1.6428,1.6427,1.6421,1.6422,1.642,1.6409,1.6405,1.6393,1.6397,1.6416,1.6384,1.6383,1.6389,1.643,1.6438,1.6441,1.6407,1.6408,1.6408,1.643,0,1.6489,1.6494,1.6479,1.6488,1.6488,1.6467,1.647,1.6463,1.6453,1.6451,1.6441,1.6439,1.6425,1.6422,1.6425,1.6413,1.6424,1.6412,1.6408,1.6408,1.6409,1.6445,1.6454,1.6475,1.6433,1.6433,1.6433,0,1.652,1.6515,1.6523,1.6509,1.6508,1.6511,1.6504,1.6503,1.6494,1.6486,1.6482,1.6468,1.6469,1.6454,1.6456,1.6448,1.6445,1.6439,1.644,1.6438,1.6421,1.6443,1.6481,1.6484,1.6437,1.6437,1.6437,0,1.6552,1.6547,1.6551,1.6547,1.6532,1.6534,1.6527,1.6517,1.6514,1.6508,1.6506,1.6501,1.6497,1.6493,1.6477,1.6468,1.648,1.6464,1.6473,1.6474,1.6476,1.6476,1.6513,1.6476,1.6476,1.6476,1.6476,0,1.6581,1.6587,1.6565,1.6567,1.6573,1.6555,1.6561,1.6552,1.6543,1.6543,1.6526,1.6526,1.6506,1.6504,1.6492,1.6494,1.6493,1.6487,1.6483,1.6488,1.6488,1.6485,1.6482,1.6477,1.6477,1.6477,1.6477,0,1.6617,1.6603,1.6606,1.659,1.6586,1.6591,1.6577,1.6579,1.6568,1.6568,1.6567,1.655,1.6547,1.6531,1.6524,1.6516,1.6522,1.6516,1.6525,1.6522,1.6532,1.653,1.6567,1.6571,1.6533,1.6534,1.6534,0,1.6636,1.664,1.6625,1.6623,1.6617,1.6616,1.6613,1.6596,1.6593,1.6582,1.6585,1.658,1.6575,1.657,1.6556,1.655,1.6543,1.6557,1.6542,1.6546,1.6542,1.6541,1.6541,1.656,1.656,1.656,1.6561,0,1.6671,1.6663,1.666,1.6654,1.6651,1.6645,1.6638,1.6638,1.6619,1.6617,1.6613,1.661,1.6602,1.6597,1.6588,1.6581,1.6567,1.6566,1.6567,1.6571,1.6575,1.6572,1.6532,1.6564,1.6564,1.6564,1.6564,1.6563,1.6698,1.67,1.6689,1.6686,1.6679,1.6673,1.6673,1.6662,1.6659,1.6651,1.6641,1.6638,1.6628,1.6615,1.6609,1.6606,1.6598,1.6601,1.6601,1.6602,1.6604,1.6577,1.6604,1.6604,1.6604,1.6604,1.6604,0,1.673,1.6723,1.672,1.6711,1.6708,1.6696,1.6688,1.6686,1.6683,1.6675,1.667,1.6665,1.666,1.6646,1.6639,1.6639,1.6633,1.6638,1.6637,1.6635,1.6611,1.661,1.6643,1.6643,1.6643,1.6643,1.6643,1.6643,1.6747,1.6749,1.6741,1.6739,1.6731,1.6728,1.6724,1.6718,1.6711,1.6707,1.6702,1.6693,1.6682,1.6675,1.6669,1.6665,1.6663,1.667,1.6663,1.6641,1.6637,1.6634,1.6632,1.667,1.667,1.6688,1.6688,1.6688]}]]